Location: Unspecified
(0.0000°N, 0.0000°E)
Time: 05:38:53
(UTC+02:00)

ADEOS II - Visible Passes

Search period start: 25 July 2014 00:00
Search period end: 04 August 2014 00:00
Orbit: 801 x 803 km, 98.3° (Epoch: 24 July)

Date Brightness Start Highest point End Pass type
(mag) Time Alt. Az. Time Alt. Az. Time Alt. Az.
25 Jul 4.4 20:38:22 10° SSW 20:42:37 25° WSW 20:46:52 10° NW visible
26 Jul 2.9 07:34:45 10° NNE 07:39:52 56° ESE 07:45:01 10° S visible
27 Jul 4.2 07:09:37 10° NE 07:14:00 27° ESE 07:18:23 10° SSE visible
28 Jul 4.9 06:45:44 10° ENE 06:48:08 13° ESE 06:50:33 10° SE visible
28 Jul 4.9 21:01:59 10° SW 21:04:27 13° WSW 21:06:54 10° WNW visible
29 Jul 4.3 20:34:11 10° SSW 20:38:35 28° WSW 20:43:00 10° NW visible
30 Jul 3.1 07:30:46 10° NNE 07:35:50 51° ESE 07:40:55 10° S visible
31 Jul 4.3 07:05:45 10° NE 07:09:58 25° ESE 07:14:12 10° SSE visible
01 Aug 5.0 06:42:15 10° E 06:44:07 12° ESE 06:45:59 10° SE visible
01 Aug 4.9 20:57:33 10° SW 21:00:25 15° WSW 21:03:17 10° WNW visible
02 Aug 4.1 20:30:00 10° SSW 20:34:33 30° WSW 20:39:06 10° NW visible
03 Aug 3.3 07:26:48 10° NNE 07:31:48 46° ESE 07:36:49 10° S visible
